Terminal Aerodrome Forecast
Issued by NWS

Home | Current Version | Previous Version | Text Only | Print | Product List | Glossary On
Versions: 1 2 3 4 5 6 7 8 9 10 11 12 13 14 15 16 17 18 19 20 21 22 23 24 25 26 27 28 29 30 31 32 33 34 35 36 37 38 39 40 41 42 43 44 45 46 47 48 49 50
000
FTUS41 KCTP 221521 AAC
TAFBFD
TAF AMD
KBFD 221521Z 2215/2312 18006KT P6SM BKN025
     FM221700 20004KT P6SM SCT015
     FM230300 VRB03KT 4SM BR SKC
     FM230600 00000KT 2SM BR SKC=

USA.gov is the U.S. government's official web portal to all federal, state and local government web resources and services.